Regional Weather Roundup
Issued by NWS Goodland, KS

Home | Current Version | Previous Version | Graphics & Text | Print | Product List | Glossary On
Versions: 1 2 3 4 5 6 7 8 9 10 11 12 13 14 15 16 17 18 19 20 21 22 23 24 25 26 27 28 29 30 31 32 33 34 35 36 37 38 39 40 41 42 43 44 45 46 47 48 49 50
000
ASUS43 KGLD 310408
RWRGLD

GOODLAND FORECAST AREA HOURLY WEATHER ROUNDUP
NATIONAL WEATHER SERVICE GOODLAND KS
1000 PM MDT WED JUL 30 2014

...OFFICIAL OBSERVATIONS...

CITY           SKY/WX    TMP DP  RH WIND       PRES   REMARKS
GOODLAND KS    MOCLDY    62  59  90 W7        30.26R
HILL CITY KS   MOCLDY    66  54  65 CALM      30.18R
IMPERIAL NEB   MOCLDY    65  59  81 W8        30.23R
MCCOOK NEB     MOCLDY    68  60  75 SW5       30.18R
AKRON CO       CLOUDY    59  55  87 W10       30.31R
BURLINGTON CO  CLOUDY    63  57  81 NW5       30.29R
LIMON CO       CLOUDY    59  53  80 CALM      30.36R
$$

...UNOFFICIAL OBSERVATIONS...

CITY           SKY/WX    TMP DP  RH WIND       PRES   REMARKS
COLBY KS       CLOUDY    66  64  94 W5        30.24R
GOVE KS          N/A     65  32  29 MISG        N/A
LENORA KS        N/A     68  32  26 MISG        N/A
NORTON KS      CLEAR     68  55  64 CALM      30.17S
OBERLIN KS     FAIR      66  55  68 CALM      30.19R
SHARON SPRINGS   N/A     64  60  86 CALM        N/A
WAKEENEY KS      N/A     68  49  50 MISG        N/A
KIT CARSON CO    N/A     63  57  81 CALM        N/A
WRAY CO          N/A     63  59  88 W6        30.26R
YUMA CO          N/A     60  55  85 W5          N/A
$$


USA.gov is the U.S. government's official web portal to all federal, state and local government web resources and services.